Hourly Data Report for June 27, 2021

VINELAND STATION RCS
ONTARIO
Current Station Operator: ECCC - MSC

43°11'00.000" N
79°24'00.000" W
79.20 m
6139148
71171
XVN

Download Data

Hourly Data (June 2021)
Hourly Data Report for June 27, 2021
TIME
LST
Temp Definition
°C
Dew Point Definition
°C
Rel Hum Definition
%
Precip. Amount Definition
mm

Wind Dir Definition
10's deg

Wind Spd Definition
km/h
Visibility Definition
km
Stn Press Definition
kPa
Hmdx Definition


Wind Chill Definition


Weather Definition


00:00 26.0 18.9 65 0.0 20 27   100.35 33   LegendNANA
01:00 25.5 18.3 65 0.0 20 25   100.34 32   LegendNANA
02:00 25.0 17.9 65 0.0 21 25   100.30 31   LegendNANA
03:00 25.1 17.7 63 0.0 21 27   100.31 31   LegendNANA
04:00 24.9 17.6 64 0.0 21 27   100.34 31   LegendNANA
05:00 24.5 17.6 65 0.0 21 25   100.36 30   LegendNANA
06:00 24.6 17.8 66 0.0 21 26   100.38 30   LegendNANA
07:00 25.5 18.2 64 0.0 21 28   100.39 32   LegendNANA
08:00 26.4 18.5 62 0.0 21 29   100.43 33   LegendNANA
09:00 27.1 18.7 60 0.0 22 30   100.48 34   LegendNANA
10:00 28.3 19.6 59 0.0 23 29   100.51 36   LegendNANA
11:00 28.4 19.2 58 0.0 22 36   100.55 35   LegendNANA
12:00 29.3 20.2 58 0.0 22 31   100.55 37   LegendNANA
13:00 29.8 20.4 57 0.0 22 37   100.55 38   LegendNANA
14:00 30.1 20.3 56 0.0 22 36   100.54 38   LegendNANA
15:00 30.5 20.8 56 0.0 23 37   100.52 39   LegendNANA
16:00 30.3 20.8 57 0.0 22 32   100.54 39   LegendNANA
17:00 30.8 20.9 56 0.0 23 20   100.52 39   LegendNANA
18:00 30.0 20.5 57 0.0 22 24   100.53 38   LegendNANA
19:00 27.7 20.6 65 0.0 22 20   100.58 36   LegendNANA
20:00 25.7 20.5 73 0.0 21 17   100.55 34   LegendNANA
21:00 25.2 20.1 74 0.0 21 14   100.59 33   LegendNANA
22:00 24.1 19.8 77 0.0 21 15   100.62 32   LegendNANA
23:00 23.5 20.1 81 0.0 21 12   100.65 31   LegendNANA

Notes on Data Quality.

Legend

  • E = Estimated
  • M = Missing
  • NA = Not Available*
  • [empty] = Indicates an unobserved value
Date modified: